• In Austria
  • List of Countries
  • For 7 days
  • Water Temperature
  • Satellite Maps
  • Weather Map
  • News
  • Weather Widgets
  • user-avatar
    Login

    Hourly Weather Artashat

    Today, 25 September, Tuesday

    Time Temperature Precipitation Wind Pressure Humidity
    00:00 +13°C° 0 mm 1 mps 605 mmHg 48%
    01:00 +12°C° 0 mm 1 mps 604 mmHg 49%
    02:00 +12°C° 0 mm 1 mps 604 mmHg 50%
    03:00 +12°C° 0 mm 1 mps 604 mmHg 53%
    04:00 +11°C° 0 mm 1 mps 604 mmHg 55%
    05:00 +11°C° 0 mm 1 mps 603 mmHg 56%
    06:00 +10°C° 0 mm 1 mps 603 mmHg 57%
    07:00 +13°C° 0 mm 1 mps 604 mmHg 49%
    08:00 +15°C° 0 mm 1 mps 605 mmHg 42%
    09:00 +19°C° 0 mm 1 mps 606 mmHg 34%
    10:00 +20°C° 0 mm 1 mps 606 mmHg 31%
    11:00 +21°C° 0 mm 1 mps 606 mmHg 28%
    12:00 +21°C° 0 mm 2 mps 606 mmHg 26%
    13:00 +23°C° 0 mm 2 mps 606 mmHg 25%
    14:00 +23°C° 0 mm 2 mps 606 mmHg 24%
    15:00 +24°C° 0 mm 2 mps 606 mmHg 23%
    16:00 +21°C° 0 mm 2 mps 605 mmHg 26%
    17:00 +20°C° 0 mm 1 mps 604 mmHg 29%
    18:00 +19°C° 0 mm 1 mps 604 mmHg 32%
    19:00 +18°C° 0 mm 1 mps 604 mmHg 35%
    20:00 +16°C° 0 mm 1 mps 603 mmHg 38%
    21:00 +15°C° 0 mm 1 mps 603 mmHg 40%
    22:00 +15°C° 0 mm 1 mps 603 mmHg 42%
    23:00 +14°C° 0 mm 1 mps 603 mmHg 44%

    Tomorrow, 26 September, Wednesday

    Time Temperature Precipitation Wind Pressure Humidity
    00:00 +14°C° 0 mm 1 mps 603 mmHg 46%
    01:00 +13°C° 0 mm 1 mps 603 mmHg 48%
    02:00 +13°C° 0 mm 1 mps 603 mmHg 51%
    03:00 +12°C° 0 mm 1 mps 603 mmHg 53%
    04:00 +12°C° 0 mm 1 mps 602 mmHg 55%
    05:00 +11°C° 0 mm 1 mps 602 mmHg 57%
    06:00 +11°C° 0 mm 1 mps 602 mmHg 59%
    07:00 +13°C° 0 mm 1 mps 603 mmHg 52%
    08:00 +15°C° 0 mm 2 mps 604 mmHg 46%
    09:00 +17°C° 0 mm 2 mps 605 mmHg 39%
    10:00 +18°C° 0 mm 2 mps 605 mmHg 35%
    11:00 +19°C° 0 mm 2 mps 605 mmHg 32%
    12:00 +20°C° 0 mm 2 mps 606 mmHg 29%
    13:00 +21°C° 0 mm 2 mps 605 mmHg 28%
    14:00 +21°C° 0 mm 2 mps 605 mmHg 26%
    15:00 +21°C° 0 mm 2 mps 605 mmHg 25%
    16:00 +20°C° 0 mm 2 mps 605 mmHg 28%
    17:00 +19°C° 0 mm 2 mps 604 mmHg 31%
    18:00 +17°C° 0 mm 2 mps 604 mmHg 34%
    19:00 +17°C° 0 mm 2 mps 604 mmHg 38%
    20:00 +16°C° 0 mm 2 mps 605 mmHg 41%
    21:00 +15°C° 0 mm 2 mps 605 mmHg 45%
    22:00 +14°C° 0 mm 2 mps 605 mmHg 48%
    23:00 +13°C° 0 mm 2 mps 605 mmHg 51%

    Day after tomorrow, 27 September, Thursday

    Time Temperature Precipitation Wind Pressure Humidity
    00:00 +13°C° 0 mm 2 mps 605 mmHg 55%
    01:00 +12°C° 0 mm 2 mps 605 mmHg 58%
    02:00 +12°C° 0 mm 2 mps 604 mmHg 61%
    03:00 +11°C° 0 mm 1 mps 604 mmHg 64%
    04:00 +11°C° 0 mm 1 mps 604 mmHg 66%
    05:00 +10°C° 0 mm 1 mps 604 mmHg 68%
    06:00 +10°C° 0 mm 1 mps 604 mmHg 70%
    07:00 +12°C° 0 mm 1 mps 605 mmHg 62%
    08:00 +13°C° 0 mm 2 mps 606 mmHg 54%
    09:00 +15°C° 0 mm 2 mps 607 mmHg 47%
    10:00 +16°C° 0 mm 2 mps 607 mmHg 43%
    11:00 +18°C° 0 mm 2 mps 607 mmHg 40%
    12:00 +19°C° 0 mm 2 mps 608 mmHg 37%
    13:00 +19°C° 0 mm 2 mps 608 mmHg 35%
    14:00 +20°C° 0 mm 2 mps 608 mmHg 33%
    15:00 +20°C° 0 mm 2 mps 608 mmHg 32%
    16:00 +19°C° 0 mm 2 mps 607 mmHg 35%
    17:00 +18°C° 0 mm 2 mps 607 mmHg 39%
    18:00 +16°C° 0 mm 2 mps 606 mmHg 43%
    19:00 +16°C° 0 mm 2 mps 607 mmHg 47%
    20:00 +15°C° 0 mm 2 mps 607 mmHg 51%
    21:00 +14°C° 0 mm 1 mps 607 mmHg 54%
    22:00 +13°C° 0 mm 1 mps 607 mmHg 57%
    23:00 +13°C° 0 mm 1 mps 606 mmHg 59%

    28 September, Friday

    Time Temperature Precipitation Wind Pressure Humidity
    00:00 +12°C° 0 mm 1 mps 606 mmHg 61%
    01:00 +12°C° 0 mm 1 mps 606 mmHg 62%
    02:00 +11°C° 0 mm 1 mps 606 mmHg 64%
    03:00 +11°C° 0 mm 1 mps 606 mmHg 65%
    04:00 +10°C° 0 mm 1 mps 605 mmHg 67%
    05:00 +10°C° 0 mm 1 mps 605 mmHg 68%
    06:00 +10°C° 0 mm 1 mps 605 mmHg 70%
    07:00 +11°C° 0 mm 1 mps 606 mmHg 62%
    08:00 +13°C° 0 mm 1 mps 607 mmHg 54%
    09:00 +15°C° 0 mm 1 mps 608 mmHg 46%
    10:00 +17°C° 0 mm 2 mps 608 mmHg 42%
    11:00 +18°C° 0 mm 2 mps 608 mmHg 39%
    12:00 +19°C° 0 mm 2 mps 608 mmHg 35%
    13:00 +20°C° 0 mm 2 mps 608 mmHg 34%
    14:00 +20°C° 0 mm 2 mps 608 mmHg 32%
    15:00 +21°C° 0 mm 2 mps 607 mmHg 31%
    16:00 +19°C° 0 mm 2 mps 607 mmHg 35%
    17:00 +18°C° 0 mm 2 mps 606 mmHg 39%
    18:00 +16°C° 0 mm 1 mps 606 mmHg 43%
    19:00 +16°C° 0 mm 1 mps 606 mmHg 47%
    20:00 +15°C° 0 mm 1 mps 606 mmHg 51%
    21:00 +14°C° 0 mm 1 mps 606 mmHg 56%
    22:00 +14°C° 0 mm 1 mps 605 mmHg 58%
    23:00 +13°C° 0 mm 1 mps 605 mmHg 60%

    29 September, Saturday

    Time Temperature Precipitation Wind Pressure Humidity
    00:00 +13°C° 0 mm 1 mps 605 mmHg 62%
    01:00 +12°C° 0 mm 1 mps 604 mmHg 63%
    02:00 +12°C° 0 mm 1 mps 604 mmHg 64%
    03:00 +11°C° 0 mm 1 mps 604 mmHg 65%
    04:00 +11°C° 0 mm 1 mps 604 mmHg 66%
    05:00 +10°C° 0 mm 1 mps 603 mmHg 66%
    06:00 +10°C° 0 mm 1 mps 603 mmHg 67%
    07:00 +12°C° 0 mm 1 mps 604 mmHg 58%
    08:00 +15°C° 0 mm 1 mps 605 mmHg 49%
    09:00 +18°C° 0 mm 1 mps 606 mmHg 40%
    10:00 +19°C° 0 mm 1 mps 606 mmHg 36%
    11:00 +20°C° 0 mm 1 mps 606 mmHg 32%
    12:00 +21°C° 0 mm 2 mps 606 mmHg 28%
    13:00 +21°C° 0 mm 2 mps 606 mmHg 26%
    14:00 +23°C° 0 mm 2 mps 606 mmHg 25%
    15:00 +23°C° 0 mm 2 mps 605 mmHg 24%
    16:00 +20°C° 0 mm 2 mps 605 mmHg 27%
    17:00 +19°C° 0 mm 2 mps 604 mmHg 31%
    18:00 +18°C° 0 mm 1 mps 604 mmHg 34%
    19:00 +18°C° 0 mm 1 mps 604 mmHg 36%
    20:00 +16°C° 0 mm 1 mps 604 mmHg 38%
    21:00 +15°C° 0 mm 1 mps 604 mmHg 41%
    22:00 +15°C° 0 mm 1 mps 604 mmHg 40%
    23:00 +14°C° 0 mm 1 mps 604 mmHg 40%

    30 September, Sunday

    Time Temperature Precipitation Wind Pressure Humidity
    00:00 +14°C° 0 mm 1 mps 603 mmHg 40%
    01:00 +13°C° 0 mm 1 mps 603 mmHg 40%
    02:00 +13°C° 0 mm 1 mps 603 mmHg 40%
    03:00 +12°C° 0 mm 1 mps 603 mmHg 40%
    04:00 +12°C° 0 mm 1 mps 603 mmHg 41%
    05:00 +11°C° 0 mm 1 mps 603 mmHg 41%
    06:00 +11°C° 0 mm 1 mps 603 mmHg 42%
    07:00 +13°C° 0 mm 1 mps 604 mmHg 37%
    08:00 +16°C° 0 mm 1 mps 605 mmHg 32%
    09:00 +19°C° 0 mm 1 mps 606 mmHg 26%
    10:00 +20°C° 0 mm 1 mps 606 mmHg 24%
    11:00 +21°C° 0 mm 1 mps 607 mmHg 22%
    12:00 +22°C° 0 mm 1 mps 607 mmHg 20%
    13:00 +23°C° 0 mm 2 mps 607 mmHg 19%
    14:00 +23°C° 0 mm 2 mps 606 mmHg 18%
    15:00 +24°C° 0 mm 2 mps 606 mmHg 18%
    16:00 +21°C° 0 mm 2 mps 606 mmHg 21%
    17:00 +19°C° 0 mm 2 mps 605 mmHg 23%
    18:00 +18°C° 0 mm 1 mps 605 mmHg 26%
    19:00 +18°C° 0 mm 1 mps 605 mmHg 28%
    20:00 +16°C° 0 mm 1 mps 605 mmHg 31%
    21:00 +15°C° 0 mm 1 mps 605 mmHg 33%
    22:00 +15°C° 0 mm 1 mps 605 mmHg 35%
    23:00 +14°C° 0 mm 1 mps 605 mmHg 37%
    Show more